Location: Niedergestelen
(46.3129°N, 7.7822°E)
Time: 20:49:30
(UTC+00:00)

USA 281 - Pass Details

Date: 01 December 2020
Orbit: 1074 x 1084 km, 106.0° (Epoch: 25 January)

Event Time Altitude Azimuth Distance (km) Brightness Sun altitude
Rises 19:03:52 0° 177° (S) 3,855 6.1 -33.7°
Reaches altitude 10° 19:06:32 10° 185° (S) 2,903 5.5 -34.2°
Maximum altitude 19:12:36 41° 253° (WSW) 1,522 4.3 -35.2°
Drops below altitude 10° 19:18:44 10° 322° (NW) 2,919 5.9 -36.3°
Sets 19:21:27 0° 330° (NNW) 3,879 6.5 -36.8°
